Weather in Safaga

Egypt     26°44′53″N   33°56′24″E
temp.,
°C
wind,
m/s
gust,
m/s
humid.,
%
clouds,
%
prec.,
mm/h
press.,
hPa
HPBL,
m
4 july, mon
mon423:00+31w11512 0.0 100411
02:00+31nw22450 0.0 100311
05:00+29nne44515 0.0 100450
08:00+30n56541 0.0 1005116
11:00+30ne78581 0.0 1005128
14:00+30ne445682 0.0 100464
17:00+30ene11560 0.0 100334
20:00+31wsw11520 0.0 100411
5 july, tue
tue523:00+31wsw22450 0.0 100411
02:00+31wnw11470 0.0 100411
05:00+30n34471 0.0 100527
08:00+30n56560 0.0 1006107
11:00+30ne67600 0.0 1006113
14:00+29e33640 0.0 100464
17:00+29se11630 0.0 100450
20:00+31sw33500 0.0 100513
6 july, wed
wed623:00+32nw33437 0.0 100511
02:00+31nw44440 0.0 100426
05:00+29nnw611480 0.0 1005161
08:00+30n68500 0.0 1006137
11:00+30nne89580 0.0 1006140
14:00+30ne55613 0.0 100599
17:00+31nne33545 0.0 100436
20:00+31wsw22470 0.0 100511
7 july, thu
thu723:00+31w33420 0.0 100512
02:00+31nw33410 0.0 100418
05:00+28n712510 0.0 1006225
08:00+30n68440 0.0 1006142
11:00+30nne79530 0.0 1006149
14:00+31nne711510 0.0 1004164
17:00+31n45483 0.0 100456
20:00+31nw45400 0.0 100533
8 july, fri
fri823:00+31wnw44380 0.0 100522
02:00+31wnw45380 0.0 100434
05:00+29nnw58430 0.0 1005122
08:00+31n68430 0.0 1006135
11:00+30nne78550 0.0 1005129
14:00+30nne67560 0.0 1003107
17:00+31n44470 0.0 100345
20:00+31wnw44430 0.0 100321